Cameron, TX

8:24 AM CDT on October 19, 2019 (GMT -0500)
Cameron

Weather History for KT35 - September, 2019

Change the Weather History Date:

Friday, September 20, 2019

  Actual Average (WUND) Record (WUND)
Temperature  
Mean Temperature 86 °F -  
Max Temperature 97 °F - - (-1)
Min Temperature 76 °F - - (-1)
Cooling Degree Days 21    
Growing Degree Days 36 (Base 50)    
Moisture  
Dew Point 73 °F    
Average Humidity 72    
Maximum Humidity 92    
Minimum Humidity 37    
Precipitation  
Precipitation 0.00 in - - ()
Sea Level Pressure  
Sea Level Pressure 29.95 in    
Wind  
Wind Speed 8 mph (SSE)    
Max Wind Speed 16 mph    
Max Gust Speed 26 mph    
Visibility 10 miles    
Events      
Averages and records for this station are not official NWS values.
T = Trace of Precipitation, MM = Missing Value Source: NWS Daily Summary

Daily Weather History Graph

Daily Weather History Graph

Search for Another Location

Airport or City:

Astronomy

Sep. 20, 2019 Rise Set
Actual Time 7:14 AM CDT 7:27 PM CDT
Civil Twilight 6:50 AM CDT 7:51 PM CDT
Nautical Twilight 6:22 AM CDT 8:19 PM CDT
Astronomical Twilight 5:54 AM CDT 8:47 PM CDT
Moon 11:41 PM CDT (9/20) 12:58 PM CDT (9/20)
Length of Visible Light 13h 00m
Length of Day
12h 12m
Waning Gibbous, 65% of the Moon is Illuminated
Sep 20
Waning Gibbous
Sep 21
Last Quarter
Sep 28
New
Oct 5
First Quarter
Oct 13
Full

Hourly Weather History & Observations

Time (CDT) Temp. Heat Index Dew Point Humidity Pressure Visibility Wind Dir Wind Speed Gust Speed Precip Events Conditions
12:15 AM 76.5 °F - 72.7 °F 88% 29.91 in 10.0 mi SE 3.5 mph - N/A   Overcast
12:35 AM 76.3 °F - 72.7 °F 89% 29.91 in 10.0 mi SE 3.5 mph - N/A   Overcast
12:55 AM 76.1 °F - 72.5 °F 89% 29.91 in 10.0 mi ESE 3.5 mph - N/A   Overcast
1:15 AM 76.3 °F - 72.5 °F 88% 29.91 in 10.0 mi SE 3.5 mph - N/A   Overcast
1:35 AM 76.6 °F - 72.7 °F 87% 29.91 in 10.0 mi SE 6.9 mph - N/A   Overcast
1:55 AM 77.0 °F - 73.2 °F 88% 29.92 in 10.0 mi SE 4.6 mph - N/A   Overcast
2:15 AM 77.4 °F - 73.9 °F 89% 29.92 in 10.0 mi SSE 5.8 mph - N/A   Overcast
2:35 AM 77.9 °F - 74.8 °F 90% 29.91 in 10.0 mi SSE 8.1 mph - N/A   Overcast
2:55 AM 78.1 °F - 75.2 °F 91% 29.91 in 10.0 mi SSE 5.8 mph - N/A   Overcast
3:15 AM 78.3 °F - 75.4 °F 91% 29.92 in 10.0 mi SSE 5.8 mph - N/A   Overcast
3:35 AM 78.4 °F - 75.4 °F 90% 29.91 in 10.0 mi SSE 5.8 mph - N/A   Overcast
3:55 AM 78.8 °F - 75.6 °F 90% 29.91 in 10.0 mi SSE 5.8 mph - N/A   Overcast
4:15 AM 79.0 °F - 75.7 °F 90% 29.91 in 10.0 mi SSE 5.8 mph - N/A   Overcast
4:35 AM 79.3 °F - 75.7 °F 89% 29.92 in 10.0 mi SSE 6.9 mph - N/A   Overcast
4:55 AM 79.3 °F - 75.6 °F 88% 29.92 in 10.0 mi SSE 8.1 mph - N/A   Overcast
5:15 AM 79.2 °F - 75.6 °F 89% 29.92 in 10.0 mi SSE 8.1 mph - N/A   Overcast
5:35 AM 79.0 °F - 75.6 °F 89% 29.93 in 10.0 mi SSE 5.8 mph - N/A   Overcast
5:55 AM 78.8 °F - 75.2 °F 89% 29.94 in 10.0 mi SSE 4.6 mph - N/A   Overcast
6:15 AM 78.4 °F - 75.4 °F 90% 29.94 in 10.0 mi SSE 4.6 mph - N/A   Overcast
6:35 AM 78.1 °F - 75.2 °F 91% 29.94 in 10.0 mi SE 3.5 mph - N/A   Overcast
6:55 AM 77.9 °F - 75.2 °F 91% 29.95 in 10.0 mi SSE 3.5 mph - N/A   Overcast
7:15 AM 77.9 °F - 75.2 °F 91% 29.96 in 10.0 mi SSE 3.5 mph - N/A   Overcast
7:35 AM 77.7 °F - 75.2 °F 92% 29.96 in 10.0 mi SSE 4.6 mph - N/A   Overcast
7:55 AM 77.9 °F - 75.2 °F 91% 29.97 in 10.0 mi SSE 4.6 mph - N/A   Overcast
8:15 AM 77.9 °F - 75.4 °F 92% 29.97 in 10.0 mi SSE 5.8 mph - N/A   Mostly Cloudy
8:35 AM 78.1 °F - 75.4 °F 91% 29.98 in 10.0 mi SSE 8.1 mph - N/A   Scattered Clouds
8:55 AM 80.1 °F 85.4 °F 75.7 °F 87% 29.98 in 10.0 mi SSE 10.4 mph - N/A   Mostly Cloudy
9:15 AM 81.3 °F 88.0 °F 75.9 °F 84% 29.98 in 10.0 mi South 8.1 mph - N/A   Overcast
9:35 AM 82.4 °F 89.8 °F 75.6 °F 80% 29.99 in 10.0 mi South 8.1 mph - N/A   Mostly Cloudy
9:55 AM 83.8 °F 91.4 °F 74.7 °F 74% 29.99 in 10.0 mi South 16.1 mph 19.6 mph N/A   Mostly Cloudy
10:15 AM 85.5 °F 93.8 °F 74.7 °F 70% 29.99 in 10.0 mi South 13.8 mph 19.6 mph N/A   Scattered Clouds
10:35 AM 87.4 °F 94.8 °F 72.9 °F 62% 29.99 in 10.0 mi South 15.0 mph 21.9 mph N/A   Mostly Cloudy
10:55 AM 88.0 °F 94.7 °F 71.8 °F 59% 29.99 in 10.0 mi SSW 13.8 mph 19.6 mph N/A   Scattered Clouds
11:15 AM 88.7 °F 94.8 °F 71.2 °F 56% 30.00 in 10.0 mi South 15.0 mph 18.4 mph N/A   Scattered Clouds
11:35 AM 90.1 °F 97.3 °F 72.0 °F 55% 29.99 in 10.0 mi SSW 16.1 mph 20.7 mph N/A   Scattered Clouds
11:55 AM 89.6 °F 95.2 °F 70.2 °F 53% 29.99 in 10.0 mi SSW 15.0 mph 20.7 mph N/A   Scattered Clouds
12:15 PM 92.1 °F 97.7 °F 69.8 °F 48% 29.98 in 10.0 mi South 13.8 mph 21.9 mph N/A   Scattered Clouds
12:35 PM 92.3 °F 98.1 °F 70.0 °F 48% 29.96 in 10.0 mi South 11.5 mph 19.6 mph N/A   Mostly Cloudy
12:55 PM 93.0 °F 99.5 °F 70.5 °F 48% 29.96 in 10.0 mi SSW 13.8 mph 18.4 mph N/A   Mostly Cloudy
1:15 PM 94.5 °F 99.6 °F 69.1 °F 43% 29.95 in 10.0 mi South 13.8 mph 19.6 mph N/A   Scattered Clouds
1:35 PM 94.1 °F 99.5 °F 69.4 °F 44% 29.94 in 10.0 mi South 10.4 mph 20.7 mph N/A   Scattered Clouds
1:55 PM 94.6 °F 99.4 °F 68.5 °F 42% 29.94 in 10.0 mi South 15.0 mph 21.9 mph N/A   Scattered Clouds
2:15 PM 92.7 °F 97.2 °F 68.5 °F 45% 29.93 in 10.0 mi South 8.1 mph 21.9 mph N/A   Scattered Clouds
2:35 PM 95.2 °F 101.0 °F 69.3 °F 43% 29.92 in 10.0 mi SSE 8.1 mph 18.4 mph N/A   Mostly Cloudy
2:55 PM 95.4 °F 100.2 °F 68.4 °F 41% 29.91 in 10.0 mi SSE 10.4 mph 18.4 mph N/A   Scattered Clouds
3:15 PM 95.0 °F 99.5 °F 68.2 °F 41% 29.92 in 10.0 mi SSE 9.2 mph 20.7 mph N/A   Clear
3:35 PM 93.9 °F 99.7 °F 69.4 °F 45% 29.91 in 10.0 mi SSE 12.7 mph 19.6 mph N/A   Scattered Clouds
3:55 PM 96.3 °F 99.7 °F 66.4 °F 37% 29.91 in 10.0 mi SSE 15.0 mph 23.0 mph N/A   Scattered Clouds
4:15 PM 95.9 °F 100.7 °F 68.0 °F 40% 29.91 in 10.0 mi SSE 13.8 mph 23.0 mph N/A   Scattered Clouds
4:35 PM 90.5 °F 96.5 °F 70.5 °F 52% 29.91 in 10.0 mi SSE 11.5 mph 25.3 mph N/A   Mostly Cloudy
4:55 PM 93.4 °F 99.7 °F 70.3 °F 47% 29.91 in 10.0 mi SSE 15.0 mph 24.2 mph N/A   Scattered Clouds
5:15 PM 92.7 °F 97.7 °F 68.9 °F 46% 29.91 in 10.0 mi SSE 13.8 mph 26.5 mph N/A   Scattered Clouds
5:35 PM 91.6 °F 96.7 °F 69.6 °F 48% 29.92 in 10.0 mi SSE 12.7 mph 26.5 mph N/A   Scattered Clouds
5:55 PM 91.6 °F 97.2 °F 70.2 °F 49% 29.93 in 10.0 mi SSE 13.8 mph 19.6 mph N/A   Mostly Cloudy
6:15 PM 90.1 °F 95.3 °F 69.8 °F 51% 29.93 in 10.0 mi SSE 15.0 mph 21.9 mph N/A   Scattered Clouds
6:35 PM 86.9 °F 93.7 °F 72.7 °F 62% 29.94 in 10.0 mi SE 13.8 mph 19.6 mph N/A   Scattered Clouds
6:55 PM 85.5 °F 91.8 °F 72.5 °F 65% 29.94 in 10.0 mi SE 12.7 mph 19.6 mph N/A   Clear
7:15 PM 83.7 °F 89.2 °F 72.0 °F 68% 29.95 in 10.0 mi SE 11.5 mph 18.4 mph N/A   Clear
7:35 PM 82.9 °F 88.0 °F 72.0 °F 69% 29.96 in 10.0 mi SSE 12.7 mph 19.6 mph N/A   Clear
7:55 PM 82.4 °F 87.4 °F 72.1 °F 71% 29.96 in 10.0 mi SE 11.5 mph 19.6 mph N/A   Clear
8:15 PM 81.7 °F 86.7 °F 72.7 °F 74% 29.97 in 10.0 mi SE 9.2 mph - N/A   Clear
8:35 PM 81.1 °F 86.2 °F 73.2 °F 77% 29.98 in 10.0 mi SSE 9.2 mph 17.3 mph N/A   Clear
8:55 PM 81.0 °F 86.0 °F 73.4 °F 78% 29.99 in 10.0 mi SE 9.2 mph 16.1 mph N/A   Clear
9:15 PM 80.6 °F 85.5 °F 73.9 °F 80% 30.01 in 10.0 mi SE 8.1 mph - N/A   Clear
9:35 PM 80.1 °F 84.5 °F 73.9 °F 81% 30.01 in 10.0 mi SE 10.4 mph - N/A   Clear
9:55 PM 79.7 °F - 73.8 °F 82% 30.02 in 10.0 mi SE 6.9 mph - N/A   Clear
10:15 PM 78.8 °F - 73.4 °F 83% 30.02 in 10.0 mi SSE 8.1 mph - N/A   Clear
10:35 PM 78.3 °F - 73.4 °F 85% 30.03 in 10.0 mi SE 8.1 mph - N/A   Clear
10:55 PM 78.1 °F - 73.6 °F 86% 30.04 in 10.0 mi SE 5.8 mph - N/A   Clear
11:15 PM 77.5 °F - 73.4 °F 87% 30.05 in 10.0 mi SE 9.2 mph - N/A   Clear
11:35 PM 77.5 °F - 73.4 °F 87% 30.05 in 10.0 mi SE 6.9 mph - N/A   Clear
11:55 PM 77.2 °F - 73.4 °F 88% 30.05 in 10.0 mi SE 6.9 mph - N/A   Clear